Tracking 28790 objects as of 19-Apr-2024
HD Live streaming from Space Station
objects crossing your sky now

ERS 2 DEB

Track ERS 2 DEB now!
10-day predictions


NORAD ID: 35391
Int'l Code: 1995-021E
Perigee: 755.4 km
Apogee: 764.0 km
Inclination: 98.5 °
Period: 99.9 minutes
Semi major axis: 7130 km
RCS: 0.0058 m2 (small)
Launch date: April 21, 1995
Source: European Space Agency (ESA)
Launch site: FRENCH GUIANA (FRGUI)

Note: This is SATELLITE DEBRIS
Your satellite tracking list
Your tracking list is empty




NASA's NSSDC Master Catalog

Two Line Element Set (TLE):
1 35391U 95021E   24108.35830244  .00008598  00000-0  26413-2 0  9990
2 35391  98.5344  71.5969 0006020   3.0739 151.3760 14.41810385883370
Source of the keplerian elements: AFSPC